Location: La Pernelle
(49.6188°N, 1.2999°W)
Time: 11:06:40
(UTC+00:00)

Meteor 2-20 - Pass Details

Date: 27 October 2021
Orbit: 939 x 958 km, 82.5° (Epoch: 08 December)

Event Time Altitude Azimuth Distance (km) Brightness Sun altitude
Rises 03:20:03 0° 125° (SE) 3,608 7.9 -33.5°
Reaches altitude 10° 03:24:18 10° 97° (E) 2,666 7.5 -32.8°
Maximum altitude 03:26:30 12° 75° (ENE) 2,513 7.5 -32.5°
Drops below altitude 10° 03:28:42 10° 54° (NE) 2,668 7.6 -32.2°
Sets 03:32:56 0° 26° (NNE) 3,617 8.1 -31.5°
